| time (UTC) | temp F | wind direction | speed knots | gust knots | rain 1hr in | rain 24hr in | rain mn in | humidity % | barometer mb |
| 20260508231503 | 72 | 61 | 9.6 | 15.6 | 0.00 | 0.00 | 0.00 | 28 | 1005.2 |
| 20260508230002 | 73 | 144 | 6.1 | 12.2 | 0.00 | 0.00 | 0.00 | 28 | 1005.2 |
| 20260508224559 | 72 | 82 | 3.5 | 13.0 | 0.00 | 0.00 | 0.00 | 30 | 1005.4 |
| 20260508223058 | 72 | 61 | 3.5 | 12.2 | 0.00 | 0.00 | 0.00 | 29 | 1005.6 |
| 20260508221556 | 71 | 110 | 6.1 | 13.0 | 0.00 | 0.00 | 0.00 | 30 | 1005.7 |
| 20260508220057 | 71 | 116 | 7.0 | 14.8 | 0.00 | 0.00 | 0.00 | 30 | 1005.7 |
| 20260508214554 | 71 | 97 | 7.0 | 11.3 | 0.00 | 0.00 | 0.00 | 32 | 1005.9 |
| 20260508213052 | 71 | 70 | 2.6 | 10.4 | 0.00 | 0.00 | 0.00 | 32 | 1005.9 |
| 20260508211548 | 71 | 51 | 6.1 | 9.6 | 0.00 | 0.00 | 0.00 | 32 | 1006.1 |
| 20260508210046 | 70 | 34 | 5.2 | 15.6 | 0.00 | 0.00 | 0.00 | 32 | 1006.3 |
| 20260508204547 | 70 | 161 | 5.2 | 11.3 | 0.00 | 0.00 | 0.00 | 32 | 1006.5 |
| 20260508203042 | 70 | 80 | 5.2 | 11.3 | 0.00 | 0.00 | 0.00 | 31 | 1006.7 |
| 20260508201540 | 69 | 113 | 3.5 | 8.7 | 0.00 | 0.00 | 0.00 | 34 | 1006.7 |
| 20260508200050 | 69 | 166 | 4.3 | 11.3 | 0.00 | 0.00 | 0.00 | 32 | 1007.0 |
| 20260508194536 | 68 | 176 | 1.7 | 8.7 | 0.00 | 0.00 | 0.00 | 35 | 1007.1 |
| 20260508193034 | 67 | 76 | 5.2 | 14.8 | 0.00 | 0.00 | 0.00 | 37 | 1007.1 |
| 20260508191532 | 67 | 65 | 5.2 | 12.2 | 0.00 | 0.00 | 0.00 | 38 | 1007.3 |
| 20260508190036 | 67 | 33 | 5.2 | 11.3 | 0.00 | 0.00 | 0.00 | 38 | 1007.5 |
| 20260508184533 | 66 | 75 | 5.2 | 9.6 | 0.00 | 0.00 | 0.00 | 38 | 1007.7 |
| 20260508183027 | 65 | 53 | 5.2 | 13.9 | 0.00 | 0.00 | 0.00 | 41 | 1007.9 |
| 20260508181522 | 65 | 66 | 6.1 | 10.4 | 0.00 | 0.00 | 0.00 | 42 | 1008.1 |
| 20260508180019 | 65 | 116 | 4.3 | 9.6 | 0.00 | 0.00 | 0.00 | 43 | 1008.3 |
| 20260508174522 | 64 | 140 | 6.1 | 11.3 | 0.00 | 0.00 | 0.00 | 41 | 1008.5 |
| 20260508173014 | 63 | 50 | 8.7 | 13.0 | 0.00 | 0.00 | 0.00 | 43 | 1008.8 |
| 20260508171512 | 64 | 143 | 5.2 | 10.4 | 0.00 | 0.00 | 0.00 | 43 | 1008.8 |
| 20260508170010 | 63 | 45 | 7.0 | 13.0 | 0.00 | 0.00 | 0.00 | 44 | 1009.1 |
| 20260508164512 | 62 | 78 | 7.8 | 14.8 | 0.00 | 0.00 | 0.00 | 44 | 1009.2 |
| 20260508163006 | 62 | 50 | 9.6 | 14.8 | 0.00 | 0.00 | 0.00 | 45 | 1009.2 |
| 20260508161510 | 61 | 27 | 7.8 | 13.9 | 0.00 | 0.00 | 0.00 | 46 | 1009.3 |
| 20260508160005 | 61 | 75 | 8.7 | 13.0 | 0.00 | 0.00 | 0.00 | 48 | 1009.5 |
| 20260508154501 | 60 | 34 | 7.8 | 13.9 | 0.00 | 0.00 | 0.00 | 50 | 1009.4 |
| 20260508153100 | 60 | 56 | 7.8 | 13.0 | 0.00 | 0.00 | 0.00 | 48 | 1009.5 |
| 20260508151558 | 60 | 47 | 7.0 | 14.8 | 0.00 | 0.00 | 0.00 | 51 | 1009.6 |
| 20260508150056 | 59 | 20 | 7.0 | 11.3 | 0.00 | 0.00 | 0.00 | 50 | 1009.9 |
| 20260508144555 | 58 | 246 | 2.6 | 6.1 | 0.00 | 0.00 | 0.00 | 51 | 1009.1 |
| 20260508143054 | 57 | 144 | 0.0 | 2.6 | 0.00 | 0.00 | 0.00 | 57 | 1009.3 |
| 20260508141554 | 54 | 237 | 0.9 | 4.3 | 0.00 | 0.00 | 0.00 | 63 | 1009.3 |
| 20260508140052 | 53 | 237 | 0.9 | 3.5 | 0.00 | 0.00 | 0.00 | 64 | 1009.5 |
| 20260508134550 | 52 | 326 | 0.9 | 2.6 | 0.00 | 0.00 | 0.00 | 64 | 1009.6 |
| 20260508133048 | 52 | 326 | 0.0 | 3.5 | 0.00 | 0.00 | 0.00 | 62 | 1009.7 |
| 20260508131549 | 51 | 326 | 0.0 | 3.5 | 0.00 | 0.00 | 0.00 | 64 | 1009.7 |
| 20260508130105 | 49 | 185 | 0.0 | 0.0 | 0.00 | 0.00 | 0.00 | 71 | 1009.7 |
| 20260508124541 | 47 | 185 | 0.0 | 0.0 | 0.00 | 0.00 | 0.00 | 72 | 1009.6 |
| 20260508123040 | 46 | 184 | 0.0 | 0.0 | 0.00 | 0.00 | 0.00 | 73 | 1009.5 |
| 20260508121547 | 46 | 184 | 0.0 | 0.0 | 0.00 | 0.00 | 0.00 | 74 | 1009.3 |
| 20260508120039 | 45 | 184 | 0.0 | 0.0 | 0.00 | 0.00 | 0.00 | 74 | 1009.3 |
| 20260508114536 | 46 | 185 | 0.0 | 1.7 | 0.00 | 0.00 | 0.00 | 73 | 1009.1 |
| 20260508113041 | 47 | 171 | 0.0 | 0.9 | 0.00 | 0.00 | 0.00 | 71 | 1009.1 |
| 20260508111532 | 48 | 171 | 0.0 | 0.0 | 0.00 | 0.00 | 0.00 | 69 | 1009.1 |
| 20260508110031 | 48 | 171 | 2.6 | 4.3 | 0.00 | 0.00 | 0.00 | 69 | 1009.0 |
| 20260508104543 | 48 | 16 | 0.0 | 0.0 | 0.00 | 0.00 | 0.00 | 71 | 1009.1 |
| 20260508103035 | 48 | 16 | 0.0 | 0.0 | 0.00 | 0.00 | 0.00 | 72 | 1008.9 |
| 20260508101527 | 48 | 16 | 0.0 | 0.0 | 0.00 | 0.00 | 0.00 | 69 | 1009.2 |
| 20260508100023 | 49 | 16 | 0.0 | 2.6 | 0.00 | 0.00 | 0.00 | 67 | 1009.4 |
| 20260508094519 | 50 | 16 | 0.0 | 0.0 | 0.00 | 0.00 | 0.00 | 64 | 1009.2 |
| 20260508093018 | 50 | 16 | 0.0 | 0.0 | 0.00 | 0.00 | 0.00 | 63 | 1009.2 |
| 20260508091516 | 52 | 16 | 0.0 | 0.0 | 0.00 | 0.00 | 0.00 | 60 | 1009.2 |
| 20260508090015 | 53 | 16 | 0.0 | 0.0 | 0.00 | 0.00 | 0.00 | 59 | 1009.1 |
| 20260508084507 | 54 | 16 | 0.0 | 0.0 | 0.00 | 0.00 | 0.00 | 57 | 1009.3 |
| 20260508083002 | 56 | 16 | 0.0 | 1.7 | 0.00 | 0.00 | 0.00 | 54 | 1009.2 |
| 20260508081602 | 57 | 351 | 1.7 | 5.2 | 0.00 | 0.00 | 0.00 | 48 | 1009.4 |
| 20260508080111 | 57 | 40 | 2.6 | 7.0 | 0.00 | 0.00 | 0.00 | 48 | 1009.4 |
| 20260508074557 | 57 | 20 | 4.3 | 7.8 | 0.00 | 0.00 | 0.00 | 48 | 1009.3 |
| 20260508073058 | 57 | 1 | 3.5 | 6.1 | 0.00 | 0.00 | 0.00 | 49 | 1009.5 |
| 20260508071600 | 57 | 36 | 2.6 | 5.2 | 0.00 | 0.00 | 0.00 | 48 | 1009.6 |
| 20260508070137 | 57 | 33 | 2.6 | 6.1 | 0.00 | 0.00 | 0.00 | 49 | 1009.8 |
| 20260508064605 | 58 | 13 | 2.6 | 4.3 | 0.00 | 0.00 | 0.00 | 47 | 1009.9 |
| 20260508063050 | 58 | 25 | 2.6 | 6.1 | 0.00 | 0.00 | 0.00 | 45 | 1009.8 |
| 20260508061549 | 59 | 26 | 5.2 | 8.7 | 0.00 | 0.00 | 0.00 | 43 | 1009.7 |
| 20260508060045 | 58 | 32 | 5.2 | 10.4 | 0.00 | 0.00 | 0.00 | 46 | 1009.8 |
| 20260508054544 | 58 | 1 | 1.7 | 4.3 | 0.00 | 0.00 | 0.00 | 46 | 1009.6 |
| 20260508053045 | 58 | 340 | 0.0 | 2.6 | 0.00 | 0.00 | 0.00 | 45 | 1009.4 |
| 20260508051542 | 57 | 274 | 1.7 | 5.2 | 0.00 | 0.00 | 0.00 | 50 | 1009.6 |
| 20260508050041 | 57 | 290 | 0.0 | 0.9 | 0.00 | 0.00 | 0.00 | 49 | 1009.8 |
| 20260508044541 | 57 | 290 | 0.0 | 0.9 | 0.00 | 0.00 | 0.00 | 49 | 1009.9 |
| 20260508043056 | 57 | 261 | 0.0 | 3.5 | 0.00 | 0.00 | 0.00 | 51 | 1010.0 |
| 20260508041540 | 58 | 40 | 0.0 | 0.0 | 0.00 | 0.00 | 0.00 | 44 | 1009.9 |
| 20260508040039 | 59 | 40 | 0.0 | 1.7 | 0.00 | 0.00 | 0.00 | 44 | 1010.0 |
| 20260508034540 | 57 | 31 | 0.9 | 2.6 | 0.00 | 0.00 | 0.00 | 44 | 1009.9 |
| 20260508033039 | 57 | 31 | 0.0 | 0.0 | 0.00 | 0.00 | 0.00 | 49 | 1009.8 |
| 20260508031545 | 58 | 31 | 0.0 | 0.9 | 0.00 | 0.00 | 0.00 | 47 | 1009.7 |
| 20260508030049 | 59 | 31 | 0.0 | 0.0 | 0.00 | 0.00 | 0.00 | 43 | 1009.6 |
| 20260508024536 | 59 | 31 | 0.0 | 2.6 | 0.00 | 0.00 | 0.00 | 41 | 1009.5 |
| 20260508023042 | 60 | 31 | 0.0 | 0.0 | 0.00 | 0.00 | 0.00 | 39 | 1009.2 |
| 20260508021538 | 61 | 31 | 0.0 | 0.9 | 0.00 | 0.00 | 0.00 | 40 | 1009.1 |
| 20260508020035 | 64 | 15 | 0.9 | 1.7 | 0.00 | 0.00 | 0.00 | 37 | 1009.1 |
| 20260508014534 | 66 | 15 | 0.0 | 0.0 | 0.00 | 0.00 | 0.00 | 31 | 1008.7 |
| 20260508013033 | 67 | 331 | 2.6 | 7.0 | 0.00 | 0.00 | 0.00 | 28 | 1008.5 |
| 20260508011532 | 67 | 257 | 0.0 | 2.6 | 0.00 | 0.00 | 0.00 | 28 | 1008.8 |
| 20260508010031 | 67 | 78 | 0.9 | 8.7 | 0.00 | 0.00 | 0.00 | 28 | 1008.9 |
| 20260508004529 | 67 | 98 | 5.2 | 9.6 | 0.00 | 0.00 | 0.00 | 27 | 1009.0 |
| 20260508003027 | 68 | 59 | 3.5 | 9.6 | 0.00 | 0.00 | 0.00 | 28 | 1009.3 |
| 20260508001528 | 69 | 88 | 4.3 | 8.7 | 0.00 | 0.00 | 0.00 | 27 | 1009.3 |
| 20260508000024 | 69 | 91 | 5.2 | 9.6 | 0.00 | 0.00 | 0.00 | 25 | 1009.6 |
| 20260507234524 | 69 | 76 | 5.2 | 8.7 | 0.00 | 0.00 | 0.00 | 24 | 1009.6 |
| 20260507233024 | 69 | 53 | 8.7 | 11.3 | 0.00 | 0.00 | 0.00 | 24 | 1009.7 |